When you browse on this site, cookies collect data to enhance your experience and personalize the content and advertising you see.
Visit our Privacy Policy to learn more. By continuing to use the site, you agree to this use of cookies and data.
  • In Lithuania
  • List of Countries
  • For 7 days
  • Water Temperature
  • Weather Map
  • Weather Widgets
  • user-avatar
    Login

    Hourly Weather Dotnuva

    Today, 6 June, Saturday

    Time Temperature Precipitation Wind Pressure Humidity
    00:00 +15°C° 0.1 mm 5 mps 743 mmHg 95%
    01:00 +14°C° 0.1 mm 4 mps 743 mmHg 96%
    02:00 +13°C° 0 mm 3 mps 743 mmHg 98%
    03:00 +13°C° 0 mm 3 mps 743 mmHg 98%
    04:00 +12°C° 0 mm 3 mps 744 mmHg 98%
    05:00 +12°C° 0 mm 3 mps 744 mmHg 98%
    06:00 +13°C° 0 mm 4 mps 744 mmHg 92%
    07:00 +15°C° 0 mm 5 mps 744 mmHg 87%
    08:00 +16°C° 0 mm 6 mps 745 mmHg 81%
    09:00 +16°C° 0.2 mm 6 mps 745 mmHg 78%
    10:00 +17°C° 0.2 mm 7 mps 745 mmHg 75%
    11:00 +18°C° 0.2 mm 7 mps 746 mmHg 71%
    12:00 +18°C° 0.2 mm 7 mps 747 mmHg 68%
    13:00 +18°C° 0.2 mm 8 mps 747 mmHg 64%
    14:00 +18°C° 0.2 mm 8 mps 748 mmHg 60%
    15:00 +18°C° 0 mm 7 mps 748 mmHg 61%
    16:00 +19°C° 0 mm 6 mps 749 mmHg 62%
    17:00 +19°C° 0 mm 6 mps 749 mmHg 64%
    18:00 +18°C° 0 mm 4 mps 749 mmHg 69%
    19:00 +17°C° 0 mm 3 mps 749 mmHg 74%
    20:00 +16°C° 0 mm 1 mps 750 mmHg 79%
    21:00 +16°C° 0 mm 1 mps 750 mmHg 79%
    22:00 +16°C° 0 mm 1 mps 751 mmHg 79%
    23:00 +16°C° 0 mm 2 mps 751 mmHg 78%

    Tomorrow, 7 June, Sunday

    Time Temperature Precipitation Wind Pressure Humidity
    00:00 +15°C° 0 mm 2 mps 751 mmHg 82%
    01:00 +14°C° 0 mm 2 mps 752 mmHg 86%
    02:00 +12°C° 0 mm 3 mps 752 mmHg 90%
    03:00 +13°C° 0 mm 2 mps 752 mmHg 89%
    04:00 +13°C° 0 mm 2 mps 752 mmHg 89%
    05:00 +13°C° 0 mm 2 mps 753 mmHg 89%
    06:00 +14°C° 0 mm 2 mps 753 mmHg 85%
    07:00 +16°C° 0 mm 2 mps 753 mmHg 81%
    08:00 +18°C° 0 mm 2 mps 753 mmHg 77%
    09:00 +19°C° 0 mm 2 mps 754 mmHg 74%
    10:00 +20°C° 0 mm 2 mps 754 mmHg 71%
    11:00 +23°C° 0 mm 2 mps 754 mmHg 68%
    12:00 +23°C° 0.3 mm 2 mps 754 mmHg 68%
    13:00 +24°C° 0.3 mm 3 mps 753 mmHg 69%
    14:00 +25°C° 0.3 mm 3 mps 753 mmHg 70%
    15:00 +24°C° 1.2 mm 3 mps 752 mmHg 76%
    16:00 +22°C° 1.2 mm 3 mps 752 mmHg 81%
    17:00 +22°C° 1.2 mm 3 mps 752 mmHg 87%
    18:00 +21°C° 1.4 mm 3 mps 751 mmHg 88%
    19:00 +21°C° 1.4 mm 2 mps 751 mmHg 88%
    20:00 +20°C° 1.4 mm 2 mps 751 mmHg 89%
    21:00 +20°C° 0 mm 2 mps 751 mmHg 90%
    22:00 +19°C° 0 mm 2 mps 751 mmHg 92%
    23:00 +19°C° 0 mm 3 mps 751 mmHg 93%

    Day after tomorrow, 8 June, Monday

    Time Temperature Precipitation Wind Pressure Humidity
    00:00 +18°C° 0.3 mm 2 mps 751 mmHg 94%
    01:00 +18°C° 0.3 mm 2 mps 751 mmHg 95%
    02:00 +19°C° 0.3 mm 1 mps 751 mmHg 95%
    03:00 +19°C° 0 mm 1 mps 751 mmHg 96%
    04:00 +19°C° 0 mm 1 mps 751 mmHg 96%
    05:00 +19°C° 0 mm 1 mps 751 mmHg 97%
    06:00 +20°C° 0 mm 1 mps 751 mmHg 95%
    07:00 +20°C° 0 mm 2 mps 751 mmHg 93%
    08:00 +21°C° 0 mm 2 mps 752 mmHg 91%
    09:00 +23°C° 0.1 mm 2 mps 752 mmHg 88%
    10:00 +24°C° 0.1 mm 2 mps 752 mmHg 85%
    11:00 +25°C° 0.1 mm 2 mps 752 mmHg 83%
    12:00 +26°C° 1 mm 2 mps 752 mmHg 80%
    13:00 +26°C° 1 mm 2 mps 752 mmHg 76%
    14:00 +27°C° 1 mm 3 mps 752 mmHg 73%
    15:00 +27°C° 1.7 mm 3 mps 752 mmHg 76%
    16:00 +27°C° 1.7 mm 3 mps 751 mmHg 78%
    17:00 +27°C° 1.7 mm 3 mps 751 mmHg 81%
    18:00 +26°C° 0.6 mm 3 mps 751 mmHg 82%
    19:00 +25°C° 0.6 mm 2 mps 751 mmHg 83%
    20:00 +24°C° 0.6 mm 2 mps 752 mmHg 84%
    21:00 +23°C° 0.1 mm 2 mps 752 mmHg 85%
    22:00 +20°C° 0.1 mm 2 mps 752 mmHg 87%
    23:00 +19°C° 0.1 mm 2 mps 752 mmHg 89%

    9 June, Tuesday

    Time Temperature Precipitation Wind Pressure Humidity
    00:00 +19°C° 0.2 mm 2 mps 752 mmHg 90%
    01:00 +19°C° 0.2 mm 2 mps 753 mmHg 92%
    02:00 +18°C° 0.2 mm 2 mps 753 mmHg 93%
    03:00 +18°C° 0 mm 2 mps 753 mmHg 94%
    04:00 +18°C° 0 mm 2 mps 753 mmHg 95%
    05:00 +18°C° 0 mm 1 mps 753 mmHg 96%
    06:00 +20°C° 0.3 mm 1 mps 753 mmHg 94%
    07:00 +21°C° 0.3 mm 1 mps 753 mmHg 91%
    08:00 +22°C° 0.3 mm 1 mps 754 mmHg 89%
    09:00 +23°C° 1.1 mm 2 mps 754 mmHg 88%
    10:00 +23°C° 1.1 mm 2 mps 754 mmHg 86%
    11:00 +24°C° 1.1 mm 3 mps 754 mmHg 84%
    12:00 +24°C° 1.2 mm 2 mps 754 mmHg 84%
    13:00 +24°C° 1.2 mm 2 mps 754 mmHg 85%
    14:00 +24°C° 1.2 mm 2 mps 754 mmHg 85%
    15:00 +24°C° 0.7 mm 2 mps 754 mmHg 85%
    16:00 +24°C° 0.7 mm 1 mps 754 mmHg 84%
    17:00 +23°C° 0.7 mm 1 mps 754 mmHg 84%
    18:00 +23°C° 0.3 mm 1 mps 754 mmHg 86%
    19:00 +22°C° 0.3 mm 1 mps 754 mmHg 87%
    20:00 +21°C° 0.3 mm 1 mps 754 mmHg 89%
    21:00 +21°C° 0.1 mm 1 mps 755 mmHg 90%
    22:00 +20°C° 0.1 mm 1 mps 755 mmHg 90%
    23:00 +19°C° 0.1 mm 1 mps 755 mmHg 91%

    10 June, Wednesday

    Time Temperature Precipitation Wind Pressure Humidity
    00:00 +19°C° 0 mm 1 mps 755 mmHg 92%
    01:00 +19°C° 0 mm 1 mps 755 mmHg 93%
    02:00 +18°C° 0 mm 1 mps 755 mmHg 94%
    03:00 +17°C° 0.2 mm 2 mps 755 mmHg 95%
    04:00 +17°C° 0.2 mm 2 mps 755 mmHg 96%
    05:00 +17°C° 0.2 mm 3 mps 755 mmHg 97%
    06:00 +18°C° 0 mm 2 mps 755 mmHg 95%
    07:00 +19°C° 0 mm 2 mps 755 mmHg 94%
    08:00 +20°C° 0 mm 2 mps 755 mmHg 93%
    09:00 +21°C° 0 mm 2 mps 755 mmHg 90%
    10:00 +23°C° 0 mm 2 mps 755 mmHg 87%
    11:00 +24°C° 0 mm 2 mps 755 mmHg 84%
    12:00 +25°C° 1.1 mm 2 mps 755 mmHg 81%
    13:00 +25°C° 1.1 mm 2 mps 755 mmHg 79%
    14:00 +26°C° 1.1 mm 2 mps 755 mmHg 77%
    15:00 +26°C° 0.4 mm 2 mps 755 mmHg 77%
    16:00 +26°C° 0.4 mm 2 mps 755 mmHg 78%
    17:00 +26°C° 0.4 mm 2 mps 754 mmHg 79%
    18:00 +25°C° 0.7 mm 2 mps 755 mmHg 81%
    19:00 +24°C° 0.7 mm 2 mps 755 mmHg 84%
    20:00 +23°C° 0.7 mm 2 mps 755 mmHg 87%
    21:00 +21°C° 0.3 mm 2 mps 755 mmHg 89%
    22:00 +20°C° 0.3 mm 3 mps 755 mmHg 92%
    23:00 +19°C° 0.3 mm 4 mps 755 mmHg 94%

    11 June, Thursday

    Time Temperature Precipitation Wind Pressure Humidity
    00:00 +19°C° 0.9 mm 3 mps 755 mmHg 95%
    01:00 +19°C° 0.9 mm 3 mps 755 mmHg 96%
    02:00 +18°C° 0.9 mm 3 mps 755 mmHg 97%
    03:00 +18°C° 0.6 mm 3 mps 755 mmHg 97%
    04:00 +18°C° 0.6 mm 3 mps 755 mmHg 97%
    05:00 +18°C° 0.6 mm 3 mps 755 mmHg 97%
    06:00 +18°C° 0.5 mm 3 mps 755 mmHg 96%
    07:00 +18°C° 0.5 mm 3 mps 755 mmHg 96%
    08:00 +19°C° 0.5 mm 4 mps 755 mmHg 95%
    09:00 +20°C° 0.3 mm 4 mps 755 mmHg 92%
    10:00 +22°C° 0.3 mm 4 mps 755 mmHg 89%
    11:00 +23°C° 0.3 mm 4 mps 755 mmHg 86%
    12:00 +23°C° 0.7 mm 4 mps 755 mmHg 86%
    13:00 +23°C° 0.7 mm 4 mps 755 mmHg 86%
    14:00 +25°C° 0.7 mm 3 mps 755 mmHg 85%
    15:00 +25°C° 0 mm 4 mps 754 mmHg 83%
    16:00 +25°C° 0 mm 4 mps 754 mmHg 82%
    17:00 +26°C° 0 mm 4 mps 754 mmHg 80%
    18:00 +25°C° 0.2 mm 4 mps 754 mmHg 83%
    19:00 +23°C° 0.2 mm 4 mps 754 mmHg 86%
    20:00 +22°C° 0.2 mm 3 mps 754 mmHg 89%
    21:00 +22°C° 0.2 mm 4 mps 755 mmHg 91%
    22:00 +21°C° 0.2 mm 4 mps 755 mmHg 93%
    23:00 +20°C° 0.2 mm 4 mps 755 mmHg 95%
    Show more